Wind_Speed
29 29 28 27 26 25 15 6 4 15 24 5 3 4 13 11 9 9 3 3 4 3 5 3 2 5 5 13 7 5 6 3 14 17 7 19 19 16 9 7 12 6 7 11
28 27 27 25 23 18 11 4 3 9 6 4 5 7 7 14 13 6 5 5 5 6 2 2 3 5 6 14 10 6 7 4 2 6 4 3 10 12 13 10 4 21 9 7
27 27 26 22 19 13 7 3 4 4 4 2 3 5 4 10 15 6 9 3 3 4 4 5 4 4 3 13 6 11 2 3 4 5 5 4 7 11 20 17 11 17 20 8
28 25 23 19 16 11 4 1 3 1 4 4 5 6 5 6 9 8 11 4 7 4 2 2 2 1 7 10 7 6 4 3 3 5 13 14 15 12 25 20 23 16 18 12
27 23 20 17 14 7 3 2 2 2 4 3 5 5 5 5 5 4 4 8 12 2 4 4 4 5 2 5 5 6 3 4 6 5 9 10 15 20 25 24 23 18 17 8
25 22 20 16 13 3 3 3 4 1 4 3 2 3 2 9 14 6 10 7 11 5 3 5 9 12 10 7 3 3 2 1 5 5 8 11 11 25 20 23 13 17 19 9
22 22 20 17 12 5 7 5 3 3 4 6 6 10 13 13 12 13 16 15 3 5 5 8 8 6 10 13 12 10 3 4 1 5 6 8 10 9 17 18 8 9 5 10
21 20 20 18 14 7 8 11 4 2 5 7 11 12 9 9 8 13 12 14 4 6 6 4 4 4 2 13 19 18 16 5 2 3 3 9 12 4 9 13 14 7 12 10
21 20 19 17 16 13 11 12 11 3 3 4 5 3 8 8 6 5 4 6 5 2 2 3 5 4 3 4 5 20 17 17 5 3 4 6 0 18 21 14 17 9 10 11
22 20 19 19 15 11 9 7 9 5 3 6 7 6 4 4 2 5 5 5 4 2 1 3 4 5 4 4 4 4 6 7 14 11 5 8 9 25 11 5 8 6 8 6
23 21 20 18 16 14 10 11 13 8 3 9 15 16 13 9 5 5 4 5 1 3 2 2 3 4 6 5 6 5 9 10 6 8 8 8 13 10 9 10 15 6 6 4
25 24 22 19 17 16 12 8 9 8 5 6 21 25 30 31 27 7 4 5 3 3 1 1 2 3 4 5 4 4 6 7 8 6 6 2 1 8 13 10 6 8 4 5
28 25 23 22 20 17 13 15 12 8 3 8 8 9 21 23 33 33 6 5 6 4 3 2 2 5 4 3 6 5 6 5 8 3 6 3 9 10 14 13 7 9 7 8
29 28 25 22 20 19 17 17 15 8 3 4 6 9 14 19 19 29 39 20 3 2 2 3 3 3 3 3 4 3 5 6 13 5 5 1 9 8 12 11 9 9 11 10
33 31 26 23 20 19 18 22 25 23 6 3 6 21 10 7 16 23 28 24 12 7 3 4 3 3 4 4 2 4 6 7 7 7 4 2 6 7 11 4 6 9 10 11
38 31 26 21 15 12 6 3 3 8 17 3 4 5 5 9 10 15 13 14 7 5 4 3 4 5 4 3 3 4 4 6 5 3 4 8 13 4 9 8 6 8 10 8
39 31 22 14 10 10 5 4 3 11 3 2 4 4 5 5 3 0 2 9 4 4 3 4 4 3 1 3 4 8 9 9 7 11 10 9 10 9 7 4 7 11 13 11
36 26 19 12 7 9 11 24 25 23 1 2 3 4 4 5 3 2 1 3 3 1 2 2 2 1 2 5 10 12 13 10 13 15 7 14 16 10 4 2 5 14 11 9
29 22 6 5 4 4 6 7 5 19 5 2 2 2 3 3 3 2 3 1 2 2 3 2 1 2 5 9 14 18 12 6 7 8 5 10 21 7 9 12 11 12 10 11
18 7 3 2 2 7 2 5 2 2 2 2 2 2 3 3 2 1 1 1 2 2 3 1 2 3 13 13 11 11 4 11 9 11 7 9 11 11 9 9 4 8 10 10
9 6 2 9 8 2 1 2 2 2 2 2 3 6 4 3 3 1 1 1 0 2 1 2 2 3 5 9 2 7 12 13 12 10 9 9 9 8 6 6 6 7 8 7
13 15 11 5 3 1 2 3 2 2 3 3 3 3 5 2 2 1 1 1 3 3 2 2 5 6 14 11 15 16 14 13 12 9 11 9 8 7 7 5 5 6 9 12
1 1 3 3 3 5 5 5 3 4 2 3 4 2 0 2 1 1 2 2 4 2 3 2 3 8 9 8 11 16 17 14 15 11 4 1 2 5 6 6 8 11 11 14
3 5 7 5 5 5 4 12 7 8 4 7 3 2 3 2 3 3 5 5 4 5 5 5 5 11 16 16 13 16 16 17 16 15 15 14 13 10 15 16 17 16 12 15
3 4 6 5 5 6 11 8 6 10 8 2 2 3 3 4 4 4 4 5 5 6 5 5 8 13 15 16 16 14 14 15 15 14 15 16 13 15 16 24 24 24 24 21
3 6 5 8 5 11 13 15 11 12 11 2 3 4 5 7 4 7 8 4 4 4 4 6 8 11 11 11 14 14 15 16 17 17 20 20 18 15 16 24 24 26 25 24
5 4 3 3 4 4 8 10 10 9 9 7 4 7 7 3 5 5 4 5 7 6 7 7 10 10 10 11 14 13 13 13 20 23 24 23 24 26 24 15 19 23 24 26
Wind_Direction
337 337 339 340 344 341 343 347 329 326 338 46 17 5 314 307 307 21 309 296 279 285 21 321 249 243 29 17 347 19 333 275 242 222 219 206 207 211 167 197 225 257 242 235
333 334 335 338 344 346 328 312 265 333 29 57 2 319 315 349 9 331 2 332 37 18 327 321 68 321 45 17 19 16 340 309 268 312 305 310 216 196 196 219 156 233 223 240
333 331 333 335 342 343 323 347 329 326 26 113 350 345 315 350 332 314 358 300 25 9 19 25 327 306 353 337 332 352 41 283 222 261 270 325 208 228 210 205 223 234 233 237
335 329 330 334 341 338 306 45 268 223 321 345 325 323 279 357 355 335 338 358 25 32 298 302 184 32 330 327 3 13 74 270 270 301 294 282 264 259 225 216 220 213 234 211
344 340 336 336 342 336 253 275 289 46 271 287 315 314 351 6 345 333 297 339 332 247 212 233 309 342 203 248 315 2 17 282 350 285 265 291 274 258 252 225 217 227 236 214
344 342 343 342 346 305 235 275 265 213 272 278 276 252 322 315 318 268 270 311 312 292 266 306 264 244 240 230 190 304 279 113 3 286 309 321 278 239 250 243 217 192 219 193
341 343 342 340 345 308 248 257 268 252 284 277 279 285 293 294 293 290 296 295 273 273 311 295 271 228 221 218 225 198 240 140 169 260 315 233 267 315 237 232 214 206 168 199
340 338 339 339 339 335 276 266 216 266 279 273 285 264 294 304 290 278 254 267 232 309 311 301 331 307 249 232 223 214 204 203 217 235 235 292 299 3 341 202 229 206 202 205
342 339 337 335 334 322 304 282 251 231 274 253 271 307 295 290 284 292 258 330 288 262 253 199 209 224 270 277 249 215 196 204 215 186 240 240 103 330 328 316 227 194 182 204
336 334 332 332 329 326 321 290 257 248 260 253 246 242 230 260 271 268 298 295 318 79 244 240 198 227 238 257 251 176 183 179 220 234 252 281 342 334 312 142 247 155 149 160
330 327 326 326 325 326 315 281 280 238 253 264 242 241 252 253 216 250 303 342 5 357 278 282 280 232 217 218 242 262 195 165 188 222 221 253 7 350 356 310 301 299 102 87
325 324 314 313 312 311 313 273 293 263 240 257 279 263 250 233 234 236 207 238 282 246 200 175 316 315 286 217 251 238 251 191 177 213 224 165 30 348 319 299 301 316 357 97
318 310 312 306 303 300 291 281 286 274 268 275 250 240 259 245 240 231 234 217 212 239 198 147 251 262 310 264 248 280 279 179 196 133 242 217 41 352 334 338 353 337 7 64
321 312 302 299 297 295 288 275 263 249 273 277 283 284 257 266 248 220 212 220 191 134 161 214 228 242 252 260 296 295 264 250 217 210 253 118 58 359 323 323 347 18 36 46
323 316 308 303 298 298 296 285 271 247 203 279 291 305 283 305 235 222 210 214 219 235 242 217 227 227 261 241 304 231 242 230 211 222 234 166 90 355 316 15 345 30 51 44
328 322 314 305 297 296 317 311 239 213 203 291 303 291 288 297 266 216 201 204 194 207 206 223 237 202 198 277 270 261 234 311 241 273 271 140 113 111 335 63 38 52 69 62
332 322 313 288 271 228 182 216 241 158 125 254 286 282 273 307 286 295 118 167 193 188 218 221 214 226 136 241 233 259 292 278 283 240 175 120 139 96 323 40 55 67 66 60
335 329 324 287 228 223 243 260 248 225 184 259 268 271 296 14 315 347 90 129 191 328 271 354 277 277 233 266 259 296 296 269 283 189 199 129 110 109 101 28 140 78 60 62
333 331 4 98 139 190 248 242 229 179 165 214 243 263 290 2 286 284 359 99 143 233 248 221 180 266 227 253 297 292 297 231 117 92 107 120 100 141 100 74 53 74 74 72
340 347 7 33 302 288 267 183 181 152 160 243 255 241 258 303 244 306 1 91 196 236 244 245 217 246 267 273 270 285 324 109 122 113 93 74 83 88 66 80 31 55 47 33
359 2 327 317 333 288 350 346 352 348 262 222 245 215 228 213 252 209 181 212 213 260 232 220 281 277 324 11 1 323 56 74 71 74 64 53 74 99 96 57 31 50 60 49
313 289 299 296 340 358 341 307 290 227 261 230 240 253 198 234 210 198 257 314 200 18 56 32 348 313 348 18 360 32 43 53 59 68 76 55 48 38 34 31 18 31 42 55
347 325 326 24 330 15 3 321 298 306 212 256 272 309 27 289 255 175 221 345 20 27 33 30 265 289 321 342 349 35 51 60 64 62 70 70 359 334 14 61 71 75 63 67
54 14 354 35 337 346 324 320 318 320 283 313 271 307 1 337 26 347 17 18 23 24 13 353 357 6 26 42 51 52 35 31 51 59 59 59 58 63 59 60 57 62 59 68
56 42 5 351 311 304 324 329 337 353 336 337 356 24 31 360 47 19 13 23 36 9 12 357 10 23 57 48 47 32 34 49 49 55 66 62 38 59 59 59 52 52 54 56
55 41 360 326 340 357 355 355 357 353 350 62 34 33 24 32 15 5 18 14 31 341 11 11 15 33 30 45 55 43 43 51 54 50 52 53 46 44 52 49 47 54 57 57
30 349 308 282 291 323 353 2 355 333 5 18 53 46 27 338 15 12 354 23 19 13 20 21 33 39 29 43 54 49 43 45 56 53 45 45 48 49 47 40 37 56 57 59
Height
823 818 814 809 805 799 793 791 791 763 759 770 777 777 766 742 731 727 727 721 723 726 726 725 719 716 707 707 707 717 707 708 694 684 667 656 670 683 706 721 728 725 715 709
821 816 812 809 805 801 797 795 789 768 765 783 779 771 757 749 744 739 734 732 730 731 729 731 727 725 716 715 714 723 719 719 711 697 681 671 679 673 678 688 703 697 721 705
819 814 810 807 804 801 799 798 793 783 777 779 780 778 765 760 749 741 740 737 733 736 735 738 736 729 718 720 717 711 718 726 714 713 697 683 684 668 661 674 693 683 679 688
815 811 807 804 802 800 800 799 798 794 793 785 788 780 770 762 763 752 746 742 743 745 745 742 738 731 731 721 718 721 728 732 713 706 699 688 680 670 654 664 659 674 667 683
813 808 805 802 800 799 799 799 797 792 791 786 787 781 769 766 765 768 758 751 746 745 749 744 745 744 740 736 725 726 730 728 721 707 685 676 672 653 642 637 643 654 654 671
812 807 803 800 798 797 797 795 793 793 787 784 783 782 774 771 768 761 758 751 750 745 742 743 741 739 736 731 730 733 730 730 729 721 695 690 676 632 638 632 633 638 651 646
811 806 802 799 797 795 795 793 792 790 783 781 777 773 772 768 768 763 755 752 750 739 737 736 730 732 729 725 726 726 729 728 728 724 707 697 629 621 615 624 625 624 624 625
809 805 801 798 795 793 791 789 790 786 781 776 773 769 768 766 765 761 755 745 743 740 740 741 736 729 721 716 708 712 717 721 723 718 711 674 636 625 631 619 625 612 616 613
806 803 799 796 793 791 788 786 786 785 781 774 773 773 770 770 763 757 748 743 741 742 747 742 737 733 714 708 692 691 699 705 706 710 704 687 644 635 624 622 625 598 605 607
804 801 797 793 790 788 786 784 783 782 776 768 769 767 770 763 763 761 757 748 743 741 744 746 739 733 714 712 700 695 701 697 709 701 698 672 649 634 618 641 623 594 595 599
801 798 794 790 787 785 783 780 778 778 772 761 759 758 760 759 760 757 754 752 743 747 736 735 732 729 713 709 696 687 686 687 701 696 690 687 646 634 647 642 620 601 592 596
796 792 789 785 783 780 779 776 774 773 770 756 751 748 746 746 745 751 752 749 746 740 741 744 741 730 720 708 700 681 687 670 677 673 668 649 645 647 641 636 629 620 603 599
789 785 781 778 776 774 774 770 769 769 762 747 741 733 728 732 733 738 745 738 739 737 734 736 736 727 716 709 694 682 670 668 660 662 649 648 640 640 642 637 633 626 615 606
782 777 773 770 768 767 766 764 763 765 763 751 731 724 722 719 721 725 727 729 731 732 733 732 732 726 717 703 696 697 684 667 654 653 648 643 638 645 646 642 636 631 624 619
775 769 767 766 764 762 760 756 751 754 761 746 730 720 709 710 714 716 719 725 729 730 728 725 722 716 712 695 698 684 670 655 657 651 642 638 642 649 651 647 644 636 632 630
766 762 760 758 758 757 756 751 745 746 750 747 738 722 709 707 705 705 708 712 722 723 719 722 714 703 709 694 693 660 658 651 653 649 647 642 640 657 643 639 644 640 639 638
757 750 750 747 749 750 752 750 745 745 747 747 735 723 711 703 700 699 702 709 712 711 714 709 704 698 702 693 680 657 656 654 647 648 648 644 642 648 657 648 646 644 643 644
748 742 741 740 742 744 742 734 737 740 744 744 735 723 714 706 704 699 698 703 704 705 701 696 696 697 696 683 662 652 650 646 640 633 641 635 634 652 657 651 651 645 649 650
741 736 735 736 739 739 732 730 729 730 738 736 731 723 713 709 705 701 700 699 702 702 698 697 699 695 686 667 660 648 641 639 632 634 643 640 632 651 653 647 649 648 650 646
739 736 735 737 737 733 732 731 732 734 736 734 730 726 719 714 704 700 700 700 700 701 700 694 697 691 673 666 658 646 634 635 638 638 646 644 644 647 651 655 658 654 646 648
743 742 741 737 735 734 732 733 733 731 731 729 721 717 715 707 702 697 698 704 700 697 693 690 692 686 665 658 651 645 636 641 645 645 647 648 647 656 660 660 659 656 655 658
751 748 744 739 737 734 736 734 734 734 724 716 709 702 704 699 698 699 697 696 697 684 684 690 690 684 667 661 650 646 645 644 648 652 652 653 654 655 656 659 661 660 663 663
747 746 745 744 741 734 740 736 722 713 715 710 703 695 698 696 695 694 695 684 684 685 697 703 701 684 674 669 660 653 655 656 657 657 659 662 663 665 666 669 670 669 667 667
752 754 754 754 748 743 739 732 724 715 711 703 701 697 699 696 695 694 690 699 699 698 701 700 693 682 677 674 673 670 668 668 668 669 669 670 671 675 675 673 672 671 671 674
757 761 774 762 758 750 737 728 720 712 704 702 701 700 700 704 703 708 711 707 717 717 707 702 700 694 693 689 688 684 680 678 677 678 681 681 678 678 681 680 679 679 680 682
762 769 772 766 759 750 738 726 722 713 704 704 706 711 716 720 724 721 726 728 726 720 715 714 710 708 705 704 700 698 694 691 690 690 690 691 690 691 693 692 693 694 695 693
775 780 777 775 769 765 755 743 733 725 716 713 717 727 734 737 736 735 730 729 729 728 725 722 719 718 718 713 712 711 709 707 704 704 703 703 703 701 701 705 705 704 705 704